{"data":{"norad_id":49744,"intl_designator":"2021-115W","name":"STARLINK-3231","alt_names":[],"object_type":"PAYLOAD","status":"ACTIVE","operator":null,"country":"US","launch_date":"2021-12-02","launch_site_code":"AFETR","launch_vehicle":null,"mission":null,"orbit_class":"UNKNOWN","rcs_meters":null,"size_class":null,"mass_kg":null,"dimensions":null,"purposes":["comms"],"wikipedia_slug":null,"has_3d_model":false,"image_url":null,"decayed_at":null,"tle_current":{"epoch":"2026-05-25T01:39:45.258912Z","epoch_age_seconds":69088,"freshness":"FRESH","line1":"1 49744U 21115W   26145.06927383 -.00000771  00000+0 -30342-4 0  9996","line2":"2 49744  53.2129 166.1358 0001024  57.4828 302.6263 15.08836764247062","mean_motion":15.08836764,"eccentricity":0.0001024,"inclination_deg":53.2129,"raan_deg":166.1358,"arg_perigee_deg":57.4828,"mean_anomaly_deg":302.6263,"bstar":-3.0342e-5,"rev_number":24706,"period_min":95.43775936255,"perigee_km":539.04488817451,"apogee_km":540.46167210389,"semimajor_km":6917.8902801392,"source":"CELESTRAK","updated_at":"2026-05-25T13:38:16.835313Z"}}}